This is the latest recevied weather packets stored in our database for station/object K1JO. If no packets are shown the sender has not sent any weather packets the latest 10 day(s).
| Time | Temp. | Humidity | Pressure | Rain* | Wind** | Luminosity | Snow |
|---|---|---|---|---|---|---|---|
| 1777899183 | 10.56° C | 58% | 1003.2 hPa | 0 mm | - | 471 W/m² | - |
| 1777898880 | 10.56° C | 57% | 1003.3 hPa | 0 mm | - | 457 W/m² | - |
| 1777898577 | 10.56° C | 58% | 1003.3 hPa | 0 mm | - | 444 W/m² | - |
| 1777898274 | 10° C | 63% | 1003.2 hPa | 0 mm | - | 432 W/m² | - |
| 1777897971 | 10° C | 58% | 1003.4 hPa | 0 mm | - | 409 W/m² | - |
| 1777897667 | 10° C | 60% | 1003.4 hPa | 0 mm | - | 371 W/m² | - |
| 1777897364 | 9.44° C | 58% | 1003.4 hPa | 0 mm | - | 490 W/m² | - |
| 1777897060 | 9.44° C | 64% | 1003.6 hPa | 0 mm | - | 461 W/m² | - |
| 1777896756 | 9.44° C | 63% | 1003.3 hPa | 0 mm | - | 466 W/m² | - |
| 1777896454 | 9.44° C | 65% | 1003.7 hPa | 0 mm | - | 501 W/m² | - |
| 1777896151 | 8.89° C | 65% | 1003.5 hPa | 0 mm | - | 571 W/m² | - |
| 1777895849 | 8.89° C | 65% | 1003.7 hPa | 0 mm | - | 373 W/m² | - |
| 1777895546 | 8.89° C | 71% | 1003.7 hPa | 0 mm | - | 184 W/m² | - |
| 1777895244 | 8.89° C | 77% | 1003.7 hPa | 0 mm | - | 128 W/m² | - |
| 1777894941 | 7.78° C | 76% | 1003.5 hPa | 0 mm | - | 108 W/m² | - |
| 1777894639 | 7.22° C | 75% | 1003.7 hPa | 0 mm | - | 96 W/m² | - |
| 1777894335 | 6.67° C | 74% | 1003.4 hPa | 0 mm | - | 88 W/m² | - |
| 1777894033 | 6.67° C | 78% | 1003.5 hPa | 0 mm | - | 79 W/m² | - |
| 1777893729 | 5.56° C | 85% | 1003.6 hPa | 0 mm | - | 74 W/m² | - |
| 1777893425 | 5° C | 83% | 1003.6 hPa | 0 mm | - | 70 W/m² | - |
| 1777893121 | 4.44° C | 89% | 1003.8 hPa | 0 mm | - | 66 W/m² | - |
| 1777892818 | 3.89° C | 91% | 1003.6 hPa | 0 mm | - | 62 W/m² | - |
| 1777892515 | 2.78° C | 98% | 1003.6 hPa | 0 mm | - | 60 W/m² | - |
| 1777892210 | 2.78° C | 99% | 1003.5 hPa | 0 mm | - | 60 W/m² | - |
| 1777891907 | 2.78° C | 99% | 1003.5 hPa | 0 mm | - | 61 W/m² | - |
* Rain latest hour (hover to see other rain measurements)
** Current wind speed in m/s (hover to see current wind gust speed)